| time (UTC) | temp C | wind direction | speed KPH | gust KPH | rain 1hr cm | rain 24hr cm | rain mn cm | humidity % | barometer mb |
| 20260504081546 | 10 | 241 | 8.0 | 16.1 | 0.00 | 0.00 | 0.00 | 55 | 998.3 |
| 20260504050125 | 11 | 189 | 6.4 | 12.9 | 0.00 | 0.05 | 0.00 | 51 | 1001.7 |
| 20260504044551 | 12 | 190 | 6.4 | 11.3 | 0.00 | 0.05 | 0.05 | 51 | 1001.9 |
| 20260504043052 | 12 | 182 | 3.2 | 6.4 | 0.00 | 0.05 | 0.05 | 50 | 1002.2 |
| 20260504041547 | 12 | 184 | 3.2 | 8.0 | 0.00 | 0.05 | 0.05 | 49 | 1002.4 |
| 20260504040058 | 12 | 181 | 4.8 | 8.0 | 0.00 | 0.05 | 0.05 | 47 | 1002.6 |
| 20260504034549 | 13 | 185 | 3.2 | 12.9 | 0.00 | 0.05 | 0.05 | 46 | 1002.9 |
| 20260504033050 | 13 | 192 | 3.2 | 6.4 | 0.00 | 0.05 | 0.05 | 45 | 1003.1 |
| 20260504031617 | 12 | 242 | 3.2 | 6.4 | 0.00 | 0.05 | 0.05 | 45 | 1003.3 |
| 20260504030044 | 13 | 243 | 1.6 | 3.2 | 0.00 | 0.05 | 0.05 | 43 | 1003.4 |
| 20260504024546 | 14 | 243 | 3.2 | 6.4 | 0.00 | 0.05 | 0.05 | 41 | 1003.4 |
| 20260504023050 | 15 | 245 | 1.6 | 8.0 | 0.00 | 0.05 | 0.05 | 40 | 1003.4 |
| 20260504021547 | 15 | 246 | 1.6 | 4.8 | 0.00 | 0.05 | 0.05 | 37 | 1003.5 |
| 20260504020047 | 16 | 305 | 1.6 | 3.2 | 0.00 | 0.05 | 0.05 | 36 | 1003.6 |
| 20260504014550 | 16 | 0 | 0.0 | 0.0 | 0.00 | 0.05 | 0.05 | 34 | 1003.6 |
| 20260504013044 | 17 | 0 | 0.0 | 3.2 | 0.00 | 0.05 | 0.05 | 33 | 1003.6 |
| 20260504011546 | 17 | 0 | 0.0 | 4.8 | 0.00 | 0.05 | 0.05 | 32 | 1003.7 |
| 20260504010054 | 18 | 0 | 0.0 | 4.8 | 0.00 | 0.05 | 0.05 | 30 | 1003.6 |
| 20260504004548 | 18 | 292 | 0.0 | 4.8 | 0.00 | 0.05 | 0.05 | 30 | 1003.6 |
| 20260504003047 | 19 | 318 | 0.0 | 12.9 | 0.00 | 0.05 | 0.05 | 29 | 1003.7 |
| 20260504001606 | 19 | 333 | 3.2 | 16.1 | 0.00 | 0.05 | 0.05 | 29 | 1003.8 |
| 20260504000039 | 19 | 309 | 4.8 | 17.7 | 0.00 | 0.05 | 0.05 | 28 | 1003.7 |
| 20260503234548 | 20 | 304 | 4.8 | 16.1 | 0.00 | 0.05 | 0.05 | 28 | 1003.9 |
| 20260503233051 | 20 | 323 | 6.4 | 20.9 | 0.00 | 0.05 | 0.05 | 28 | 1004.0 |
| 20260503231550 | 20 | 331 | 4.8 | 22.5 | 0.00 | 0.05 | 0.05 | 28 | 1004.0 |
| 20260503230041 | 20 | 300 | 3.2 | 14.5 | 0.00 | 0.05 | 0.05 | 28 | 1004.1 |
| 20260503224554 | 20 | 355 | 6.4 | 20.9 | 0.00 | 0.05 | 0.05 | 28 | 1004.3 |
| 20260503223047 | 20 | 334 | 11.3 | 20.9 | 0.00 | 0.05 | 0.05 | 29 | 1004.3 |
| 20260503221543 | 20 | 309 | 6.4 | 17.7 | 0.00 | 0.05 | 0.05 | 28 | 1004.4 |
| 20260503220041 | 20 | 329 | 6.4 | 22.5 | 0.00 | 0.05 | 0.05 | 31 | 1004.3 |
| 20260503214555 | 20 | 325 | 11.3 | 24.1 | 0.00 | 0.05 | 0.05 | 31 | 1004.3 |
| 20260503213109 | 20 | 337 | 8.0 | 22.5 | 0.00 | 0.05 | 0.05 | 30 | 1004.4 |
| 20260503211605 | 20 | 301 | 12.9 | 20.9 | 0.00 | 0.05 | 0.05 | 29 | 1004.5 |
| 20260503210044 | 20 | 338 | 4.8 | 27.4 | 0.00 | 0.05 | 0.05 | 30 | 1004.6 |
| 20260503204559 | 20 | 248 | 4.8 | 20.9 | 0.00 | 0.05 | 0.05 | 29 | 1004.9 |
| 20260503203046 | 20 | 317 | 6.4 | 22.5 | 0.00 | 0.05 | 0.05 | 30 | 1004.9 |
| 20260503201545 | 20 | 318 | 6.4 | 25.7 | 0.00 | 0.05 | 0.05 | 32 | 1005.1 |
| 20260503200045 | 20 | 335 | 9.7 | 27.4 | 0.00 | 0.05 | 0.05 | 33 | 1005.2 |
| 20260503194543 | 19 | 302 | 11.3 | 29.0 | 0.00 | 0.05 | 0.05 | 35 | 1005.3 |
| 20260503193053 | 19 | 327 | 8.0 | 27.4 | 0.00 | 0.05 | 0.05 | 35 | 1005.2 |
| 20260503191601 | 19 | 304 | 9.7 | 24.1 | 0.00 | 0.05 | 0.05 | 33 | 1005.3 |
| 20260503190047 | 19 | 296 | 4.8 | 25.7 | 0.00 | 0.05 | 0.05 | 35 | 1005.4 |
| 20260503184604 | 18 | 333 | 12.9 | 27.4 | 0.00 | 0.05 | 0.05 | 36 | 1005.3 |
| 20260503183045 | 18 | 329 | 12.9 | 27.4 | 0.00 | 0.05 | 0.05 | 35 | 1005.5 |
| 20260503181550 | 18 | 319 | 8.0 | 24.1 | 0.00 | 0.05 | 0.05 | 39 | 1005.6 |
| 20260503180046 | 18 | 313 | 8.0 | 24.1 | 0.00 | 0.05 | 0.05 | 40 | 1005.7 |
| 20260503174600 | 18 | 319 | 9.7 | 29.0 | 0.00 | 0.05 | 0.05 | 39 | 1005.8 |
| 20260503173041 | 18 | 306 | 9.7 | 24.1 | 0.00 | 0.05 | 0.05 | 40 | 1005.7 |
| 20260503171548 | 18 | 279 | 8.0 | 27.4 | 0.00 | 0.05 | 0.05 | 39 | 1005.7 |